Location: Belle Vue
(50.1093°N, 5.5319°E)
Time: 00:47:08
(UTC+00:00)

Daily predictions for brighter satellites

Satellite Brightness Start Highest point End
(mag) Time Altitude Azimuth Time Altitude Azimuth Time Altitude Azimuth
SL-16 R/B 3.7 00:12:19 37° NE 00:12:19 37° NE 00:17:14 10° N
Cosmos 1943 Rocket 3.9 00:17:16 29° N 00:17:16 29° N 00:20:18 10° NNE
COSMOS 2455 4.5 00:18:59 28° NNW 00:18:59 28° NNW 00:23:53 10° NNE
CZ-2D R/B 4.2 00:18:24 10° NE 00:20:45 20° ENE 00:20:45 20° ENE
Cosmos 2297 Rocket 3.7 00:24:24 10° NNW 00:28:48 32° NNE 00:28:48 32° NNE
Resurs 1-4 Rocket 4.0 00:32:11 10° NNE 00:34:54 25° ENE 00:34:54 25° ENE
Cosmos 2369 Rocket 3.7 00:41:05 32° N 00:41:05 32° N 00:44:30 10° NNE
NOSS 3-1 (A) 4.4 00:32:27 10° NW 00:37:40 53° NW 00:37:40 53° NW
CZ-4C R/B 3.8 00:47:10 31° NNW 00:47:31 31° NNW 00:53:22 10° NE
SL-8 Rocket 4.4 01:06:54 10° N 01:12:12 59° NNE 01:12:12 59° NNE
Cosmos 2218 Rocket 4.2 01:18:09 10° N 01:24:06 67° NE 01:24:06 67° NE
Cosmos 2227 Rocket 3.1 01:21:15 10° NNW 01:25:13 44° N 01:25:13 44° N
Cosmos 2366 rocket 4.2 01:20:45 10° N 01:26:34 67° NE 01:26:34 67° NE
Lacrosse 5 4.1 01:32:48 16° ESE 01:32:48 16° ESE 01:34:45 10° E
USA 234 3.4 01:27:21 10° ESE 01:33:51 71° NNE 01:37:44 26° NW
ADEOS II 3.0 01:33:53 10° NNE 01:38:28 43° E 01:38:28 43° E
CZ-4B R/B 4.4 01:36:37 10° NNE 01:40:48 45° ENE 01:40:48 45° ENE
SL-08 R/B 4.4 01:47:13 41° ENE 01:47:13 41° ENE 01:51:27 10° N
Cosmos 2181 Rocket 4.0 01:47:57 77° N 01:47:57 77° N 01:53:41 10° N
IDEFIX/ARIANE 42P 4.5 01:47:26 10° NE 01:51:42 24° E 01:53:41 20° ESE
Cosmos 1241 Rocket 4.4 01:54:48 86° ENE 01:54:48 86° ENE 02:01:07 10° NE
SL-16 R/B 3.5 01:57:26 33° NW 01:57:26 33° NW 02:01:04 10° NNW
Cosmos 1943 Rocket 4.4 01:58:47 13° NW 02:00:15 14° NNW 02:03:04 10° N
ARIANE 5 R/B 3.7 01:56:16 10° NNE 02:00:56 35° E 02:01:51 32° ESE
IRS-1D 3.7 01:56:46 10° NNE 02:01:47 72° ENE 02:01:47 72° ENE
CZ-2D R/B 2.7 01:57:55 10° N 02:02:04 47° NNW 02:02:04 47° NNW
ATLAS 5 CENTAUR R/B 2.6 02:07:56 43° N 02:07:56 43° N 02:11:33 10° NE
NPP 4.0 02:03:56 10° N 02:08:28 54° NNW 02:08:28 54° NNW
Cosmos 2297 Rocket 3.7 02:08:20 10° NW 02:10:32 24° NW 02:10:32 24° NW
CBERS-1 4.0 02:09:12 10° NNE 02:13:59 78° NNE 02:13:59 78° NNE
Resurs 1-4 Rocket 2.9 02:11:53 10° N 02:15:58 40° NW 02:15:58 40° NW
Cosmos 1933 4.4 02:18:15 45° ENE 02:18:15 45° ENE 02:21:31 10° NNE
Cosmos 2082 3.6 02:12:29 10° NNW 02:18:13 85° ENE 02:20:23 40° SSE
Cosmos 2369 Rocket 4.4 02:22:52 12° NW 02:24:43 14° NNW 02:27:36 10° N
USA 306 4.4 02:26:37 29° ESE 02:26:37 29° ESE 02:29:35 10° ENE
SJ 16-02 3.7 02:24:45 10° N 02:28:18 23° NE 02:31:50 10° ESE
Meteor 1-25 Rocket 4.3 02:24:28 10° N 02:30:20 81° ENE 02:33:00 34° SSE
Gbstr 26 Del rocket 4.5 02:27:26 34° WNW 02:31:30 82° N 02:39:08 10° E
Cosmos 1697 Rocket 2.9 02:32:34 49° SSE 02:33:47 62° ESE 02:39:21 10° NE
ASTEX 1 4.2 02:29:09 10° NNE 02:34:02 50° E 02:36:22 28° SSE
IRS-P3 4.0 02:29:19 10° NNE 02:34:42 87° ESE 02:35:28 66° S
H-2A R/B 3.6 02:33:46 10° SE 02:37:47 37° ENE 02:41:54 10° N
Cosmos 1980 Rocket 3.3 02:35:19 24° SSE 02:38:02 38° ESE 02:43:15 10° NE
CZ-4C R/B 4.4 02:32:51 10° NW 02:38:02 26° N 02:44:02 10° ENE
USA 267 3.2 02:33:44 10° ENE 02:40:20 79° SSE 02:42:17 49° SW
Cosmos 1602 4.1 02:39:29 10° N 02:43:13 61° ENE 02:43:13 61° ENE
NOSS 2-2 (E) 4.4 02:38:45 10° NW 02:44:18 76° SW 02:52:04 10° SSE
Cosmos 2263 Rocket 3.3 02:38:57 10° NNW 02:44:22 44° NE 02:49:46 10° SE
SL-8 R/B 3.7 02:46:01 67° SSE 02:46:01 67° SSE 02:50:30 10° ESE
Cosmos 1818 3.9 02:46:11 48° WNW 02:46:56 52° NW 02:52:17 10° NE
ATLAS 2AS CENTAUR R/B 4.2 02:43:12 10° NW 02:50:23 39° NNE 02:57:05 10° E
USA 307 3.5 02:52:25 45° SSE 02:52:30 45° SE 02:56:35 10° ENE
NOSS 2-2 (D) 4.3 02:47:17 10° NW 02:52:45 78° SW 03:00:21 10° SE
Cosmos 1821 Rocket 3.9 02:47:25 10° NNW 02:53:42 67° W 02:56:30 34° SSW
Cosmos 1470 Rocket 3.4 02:50:40 10° NNW 02:55:06 78° W 02:55:25 73° SW
USA 308 3.4 02:55:23 47° SSE 02:55:35 47° SE 02:59:41 10° ENE
Spot 4 Rocket 4.2 02:52:07 10° NNE 02:57:17 72° ESE 02:59:44 32° S
SL-24 R/B 4.3 02:59:51 55° SW 03:00:36 64° W 03:05:50 10° NNW
Landsat 5 3.9 03:01:16 10° SSE 03:05:45 68° ENE 03:10:13 10° N
Cosmos 1934 Rocket 3.8 03:02:40 10° N 03:08:46 84° W 03:14:50 10° S
Cosmos 1777 Rocket 4.0 03:04:21 10° NNW 03:09:27 53° WSW 03:12:06 27° S
Cosmos 2227 Rocket 4.1 03:05:58 10° NW 03:06:57 14° NW 03:06:57 14° NW
Cosmos 1238 Rocket 4.0 03:04:18 10° N 03:11:01 88° W 03:17:17 10° S
Cosmos 1782 2.7 03:10:11 51° S 03:11:08 89° E 03:15:12 10° N
Cosmos 1656 4.1 03:12:05 37° W 03:13:27 44° NW 03:18:45 10° NNE
Lacrosse 5 1.9 03:12:00 43° SW 03:13:37 75° SE 03:18:42 10° ENE
ADEOS Rocket 3.9 03:09:51 10° SE 03:16:26 55° ENE 03:22:23 10° N
CZ-4B R/B 3.9 03:14:02 10° ESE 03:16:33 22° ENE 03:19:08 10° NNE
Cosmos 1515 Rocket 3.5 03:15:08 40° SSW 03:16:40 78° W 03:21:09 10° N
CZ-2C R/B 2.8 03:13:15 10° NNE 03:17:01 74° ESE 03:18:32 35° S
USA 234 3.3 03:10:43 10° SE 03:17:03 52° SW 03:23:25 10° WNW
Meteor 1-20 Rocket 4.4 03:12:10 10° NNW 03:17:20 43° W 03:18:42 36° SW
ADEOS II 2.9 03:13:52 10° N 03:18:30 32° WNW 03:19:23 30° W
Nadezhda 3 Rocket 4.1 03:18:39 32° SW 03:21:18 54° WNW 03:27:21 10° N
USA 276 2.1 03:21:38 71° S 03:21:39 72° SSE 03:24:51 10° E
SL-08 R/B 4.5 03:26:12 25° WNW 03:26:12 25° WNW 03:29:02 10° NW
Cosmos 972 Rocket 3.9 03:24:15 37° SW 03:26:01 59° WNW 03:30:55 10° NNE
Cosmos 44 3.7 03:24:49 24° S 03:27:18 52° ESE 03:31:50 10° NE
CSL-04 DEB 4.4 03:23:04 10° S 03:27:22 77° WSW 03:31:46 10° NNW
Cosmos 1356 3.3 03:24:09 10° NNW 03:27:34 65° W 03:28:27 44° SSW
MSX 3.8 03:22:01 10° NNE 03:27:50 86° WNW 03:32:39 15° SSW
Timation 1 Rocket 4.4 03:23:06 10° NW 03:28:55 54° WSW 03:34:44 10° S
Cosmos 1328 Rocket 4.2 03:28:50 35° W 03:29:27 37° WNW 03:33:36 10° N
Cosmos 921 Rocket 3.7 03:27:48 13° S 03:31:23 51° ESE 03:35:27 10° NNE
Cosmos 1605 Rocket 4.0 03:25:08 10° N 03:31:33 86° W 03:37:58 10° S
Meteor 1-11 Rocket 4.5 03:25:52 10° N 03:31:39 57° ENE 03:37:15 10° SSE
IDEFIX/ARIANE 42P 2.7 03:26:28 10° N 03:31:39 58° WNW 03:34:28 26° SW
Cosmos 2278 3.7 03:28:10 25° SSW 03:31:40 85° WNW 03:37:25 10° NNE
Cosmos 1933 Rocket 3.7 03:28:14 10° NNW 03:32:26 46° W 03:34:17 28° SSW
CZ-3B R/B 2.6 03:32:05 34° W 03:33:31 64° NNW 03:43:08 10° ENE
Cosmos 2228 Rocket 3.0 03:31:12 15° S 03:34:49 85° E 03:39:16 10° N
Cosmos 1151 Rocket 4.0 03:37:30 28° W 03:37:57 28° WNW 03:41:44 10° N
Cosmos 2369 3.9 03:36:41 27° WSW 03:39:41 55° NW 03:45:21 10° NNE
ARIANE 5 R/B 3.1 03:35:22 10° N 03:40:05 38° WNW 03:42:10 27° WSW
CZ-2D R/B 4.1 03:40:14 10° NNW 03:42:06 12° NW 03:43:22 11° WNW
Cosmos 1937 Rocket 4.4 03:37:22 10° NNW 03:42:25 51° ENE 03:47:26 10° SE
CZ-4C R/B 3.3 03:42:40 23° SSW 03:44:32 43° W 03:47:59 10° NNW
ALOS 4.2 03:42:31 10° NNE 03:46:42 31° E 03:50:50 10° SSE
IRIDIUM 106 4.3 03:42:19 10° N 03:47:34 87° W 03:52:48 10° S
Cosmos 1536 3.9 03:46:20 10° N 03:50:19 49° ENE 03:54:17 10° SSE
Cosmos 1869 Rocket 3.4 03:47:08 10° NNW 03:51:29 71° W 03:55:47 10° S
ATLAS 5 CENTAUR R/B 3.6 03:49:28 12° WNW 03:52:31 21° NNW 03:56:24 10° NE
Meteor 1-4 Rocket 2.8 03:53:36 10° S 03:57:02 68° E 04:00:32 10° NNE
USA 305 2.9 03:58:51 22° WSW 04:01:31 80° NNW 04:05:47 10° ENE
X-37B 1.7 04:01:25 23° SW 04:02:36 31° S 04:05:29 10° ESE
Cosmos 1689 Rocket 4.0 04:02:11 10° SE 04:04:53 33° ENE 04:07:38 10° N
USA 306 2.9 04:02:46 21° WSW 04:05:35 78° NNW 04:09:51 10° ENE
Cosmos 2100 Rocket 4.3 03:59:45 10° N 04:06:10 75° E 04:12:32 10° SSE
Meteor 1-31 Rocket 4.4 04:02:49 10° NNE 04:06:23 36° E 04:09:56 10° SSE
SJ 16-02 1.5 04:02:54 10° NNW 04:07:09 49° WSW 04:11:23 10° S
Cosmos 1763 Rocket 4.1 04:02:10 10° S 04:07:23 59° ESE 04:12:37 10° NNE
Cosmos 1727 Rocket 4.1 04:01:09 10° S 04:07:30 90° WNW 04:13:53 10° N
Cosmos 389 Rocket 3.5 04:06:12 21° WSW 04:07:34 27° WNW 04:10:41 10° N
PSLV R/B 3.5 04:04:49 10° N 04:09:00 65° WNW 04:13:09 10° SSW
Cosmos 2360 Rocket 4.2 04:07:19 10° SSE 04:12:08 29° ESE 04:16:57 10° NE
H-2A R/B 2.9 04:10:03 10° SSW 04:13:50 28° W 04:17:43 10° NW
ERS-2 2.6 04:11:13 10° SSW 04:14:37 36° W 04:18:04 10° NNW
CZ-2C R/B 2.5 04:11:34 10° N 04:16:37 65° WNW 04:21:44 10° SSW
NOSS 3-4 (A) 4.0 04:11:13 10° NW 04:18:07 82° NE 04:25:49 10° SE
Cosmos 1697 Rocket 3.7 04:14:18 15° W 04:18:10 30° NW 04:23:06 10° NNE
NOSS 3-4 (C) 4.0 04:11:20 10° NW 04:18:14 82° NE 04:25:55 10° SE
Gbstr 26 Del rocket 4.5 04:11:05 10° WNW 04:19:02 63° SSW 04:26:04 10° SE
PAYLOAD A 4.0 04:15:35 10° N 04:20:11 52° WNW 04:24:43 10° SW
Cosmos 1980 Rocket 2.7 04:17:07 13° WSW 04:22:00 44° NW 04:27:25 10° NNE
USA 267 3.7 04:16:50 10° ENE 04:23:13 57° NNW 04:29:35 10° W
FENGYUN 3A 4.1 04:18:53 10° NNE 04:24:17 69° ESE 04:29:40 10° S
SJ-6F 4.4 04:21:47 10° NNE 04:25:55 80° WNW 04:30:01 10° SSW
Cosmos 990 Rocket 4.1 04:21:47 10° NNW 04:26:49 51° WSW 04:31:49 10° S
Meteor 1-10 Rocket 4.4 04:21:29 10° SSW 04:27:10 59° WNW 04:33:00 10° N
Cosmos 2322 Rocket 2.7 04:21:37 10° SSW 04:27:13 65° ESE 04:32:53 10° NNE
SL-8 R/B 4.5 04:24:00 12° W 04:27:55 34° SSW 04:32:12 10° SE
Cosmos 1459 Rocket 3.9 04:21:48 10° N 04:27:57 85° W 04:34:00 10° S
Cosmos 2263 Rocket 2.7 04:23:04 10° NW 04:28:14 38° WSW 04:33:25 10° S
CZ-4C R/B 3.9 04:21:50 10° NW 04:28:16 45° NNE 04:35:48 10° ESE
NOSS 3-3 (A) 4.0 04:23:04 10° SW 04:28:57 83° NW 04:35:43 10° NE
NOSS 3-3 (C) 4.0 04:23:16 10° SW 04:29:04 83° NW 04:35:48 10° NE
Cosmos 1812 3.4 04:28:21 10° SW 04:31:52 33° WNW 04:35:25 10° N
Cosmos 468 Rocket 4.0 04:26:41 10° SSW 04:32:00 82° WNW 04:37:18 10° NNE
USA 307 3.1 04:28:36 12° W 04:32:30 63° NNW 04:36:45 10° ENE
SL-16 R/B 2.3 04:29:13 10° SSW 04:34:53 86° ESE 04:40:37 10° NNE
Cosmos 1844 Rocket 3.2 04:29:44 10° NNW 04:35:22 66° ENE 04:40:59 10° SE
USA 308 3.1 04:31:34 11° W 04:35:36 62° NNW 04:39:51 10° ENE
COSMO-SKYMED 1 2.9 04:32:07 10° SSE 04:36:26 74° ENE 04:40:47 10° N
SL-4 R/B 4.0 04:35:14 10° SSW 04:39:18 31° SE 04:43:31 10° E
Cosmos 540 Rocket 4.2 04:35:34 10° S 04:40:38 59° ESE 04:45:44 10° NNE
Cosmos 1666 3.4 04:37:58 10° NNW 04:41:25 33° W 04:44:51 10° SSW
ATLAS CENTAUR R/B 3.2 04:31:19 10° WNW 04:41:26 66° NNE 04:45:20 10° ESE
ATLAS 2AS CENTAUR R/B 2.9 04:34:36 10° NW 04:42:15 89° SW 04:49:14 10° SE
ERBS 2.5 04:43:43 10° SW 04:47:04 73° SE 04:50:25 10° ENE
Cosmos 1544 3.9 04:43:49 10° N 04:47:23 55° ENE 04:50:55 10° SSE
CZ-4B R/B 2.3 04:46:07 10° SSW 04:48:45 24° W 04:51:28 10° NW
